STARLINK-31058 (58677 NORAD) Tracking and Keplerian Element Data

This shows tracking and keplerian element data for the satellite.

Feedback or suggestion? Click here.




ElementValue
Catalog58677
NameSTARLINK-31058
Epoch Orbit338
Epoch Day12.91667824
Epoch Year2024
RAAN204.1006
Inclination42.9997
Eccentricity0.0001674
Argument of Perigee257.9451
Mean Anonmoly338.0732
Mean Motion15.74080467
Decay Rate-0.01694937
L11 58677U 23211L 24012.91667824 -.01694937 00000+0 -13017-1 0 9997
L22 58677 42.9997 204.1006 0001674 257.9451 338.0732 15.74080467 3381



Live tracking and technical data element details for STARLINK-31058 (NORAD 58677). STARLINK-31058 can be tracked NOW for your location showing map with azimuth and elevation plus other details from your city location.







IsCatalogInMostPopularTable: catalog: 58677, numindb: 28
Update: records affected: 1



GetName: 58677 STARLINK-31058

Hit Count: updated at: Wed, 17 Apr 2024 02:50:00 GMT